Regional Weather Roundup
Issued by NWS Goodland, KS

Home | Current Version | Previous Version | Text Only | Print | Product List | Glossary On
Versions: 1 2 3 4 5 6 7 8 9 10 11 12 13 14 15 16 17 18 19 20 21 22 23 24 25 26 27 28 29 30 31 32 33 34 35 36 37 38 39 40 41 42 43 44 45 46 47 48 49 50
000
ASUS43 KGLD 060108
RWRGLD

GOODLAND FORECAST AREA HOURLY WEATHER ROUNDUP
NATIONAL WEATHER SERVICE GOODLAND KS
700 PM MDT SUN JUL 05 2015

...OFFICIAL OBSERVATIONS...

CITY           SKY/WX    TMP DP  RH WIND       PRES   REMARKS
GOODLAND KS    TSTM      84  59  42 SW22G29   29.81R
HILL CITY KS   CLOUDY    96  58  27 S17G30    29.75S
IMPERIAL NEB   CLOUDY    84  57  39 W15G24    29.75R
MCCOOK NEB     CLOUDY    82  62  50 E14       29.77R
AKRON CO       PTSUNNY   76  56  49 N22       29.92R
BURLINGTON CO  MOSUNNY   94  52  24 S16       29.83R
LIMON CO       CLOUDY    74  55  51 NW31G45   29.99R
$$

...UNOFFICIAL OBSERVATIONS...

CITY           SKY/WX    TMP DP  RH WIND       PRES   REMARKS
COLBY KS       SUNNY     95  63  34 S23G35    29.78R
GOVE KS          N/A     93  32  11 MISG        N/A
NORTON KS      SUNNY     93  52  24 S14       29.75R
SHARON SPRINGS   N/A     94  56  27 S17G28      N/A
KIT CARSON CO    N/A     92  59  32 MISG        N/A
$$


USA.gov is the U.S. government's official web portal to all federal, state and local government web resources and services.